This is the latest recevied weather packets stored in our database for station/object WX5RP. If no packets are shown the sender has not sent any weather packets the latest 10 day(s).
| Time | Temp. | Humidity | Pressure | Rain* | Wind** | Luminosity | Snow |
|---|---|---|---|---|---|---|---|
| 1777817718 | 5° C | 82% | 1017.2 hPa | 0 mm | - | 193 W/m² | - |
| 1777817117 | 4.44° C | 82% | 1016.5 hPa | 0 mm | - | 74 W/m² | - |
| 1777816518 | 4.44° C | 83% | 1016.8 hPa | 0 mm | - | 61 W/m² | - |
| 1777815953 | 3.89° C | 83% | 1016.5 hPa | 0 mm | - | 49 W/m² | - |
| 1777815318 | 3.33° C | 84% | 1016.8 hPa | 0 mm | - | 61 W/m² | - |
| 1777814730 | 2.78° C | 83% | 1017.1 hPa | 0 mm | - | 40 W/m² | - |
| 1777814116 | 2.22° C | 83% | 1016.8 hPa | 0 mm | - | 25 W/m² | - |
| 1777813516 | 2.22° C | 82% | 1016.5 hPa | 0 mm | - | 15 W/m² | - |
| 1777812916 | 2.22° C | 82% | 1016.5 hPa | 0 mm | - | 7 W/m² | - |
| 1777812317 | 2.22° C | 82% | 1016.5 hPa | 0 mm | - | 0 W/m² | - |
| 1777811716 | 2.22° C | 81% | 1016.5 hPa | 0 mm | - | 0 W/m² | - |
| 1777811116 | 2.78° C | 81% | 1016.4 hPa | 0 mm | - | 0 W/m² | - |
| 1777810516 | 2.78° C | 80% | 1016.7 hPa | 0 mm | - | 0 W/m² | - |
| 1777809916 | 3.33° C | 80% | 1016.1 hPa | 0 mm | - | 0 W/m² | - |
| 1777809316 | 3.89° C | 79% | 1016.1 hPa | 0 mm | - | 0 W/m² | - |
| 1777808716 | 4.44° C | 79% | 1016.4 hPa | 0 mm | - | 0 W/m² | - |
| 1777808116 | 3.89° C | 80% | 1016.7 hPa | 0 mm | - | 0 W/m² | - |
| 1777807516 | 3.33° C | 79% | 1016.5 hPa | 0 mm | - | 0 W/m² | - |
| 1777806916 | 3.89° C | 79% | 1016.5 hPa | 0 mm | - | 0 W/m² | - |
| 1777806317 | 4.44° C | 78% | 1016.5 hPa | 0 mm | - | 0 W/m² | - |
| 1777805716 | 5° C | 78% | 1015.9 hPa | 0 mm | - | 0 W/m² | - |
| 1777805116 | 5.56° C | 79% | 1016.2 hPa | 0 mm | - | 0 W/m² | - |
| 1777804516 | 5° C | 80% | 1016 hPa | 0 mm | - | 0 W/m² | - |
| 1777803915 | 5° C | 80% | 1016.2 hPa | 0 mm | - | 0 W/m² | - |
| 1777803316 | 5° C | 78% | 1015.9 hPa | 0 mm | - | 0 W/m² | - |
* Rain latest hour (hover to see other rain measurements)
** Current wind speed in m/s (hover to see current wind gust speed)